sat.trackr.live / text

‹ back to catalog

STARLINK-31630

NORAD 59271 · 2024-050T

PAYLOAD ACTIVE UNKNOWN

§ Identity

Operator
Country
US
Launch date
2024-03-19
Launch site
AFWTR
Launch vehicle
Mass (kg)
RCS (m²)

Purposes: comms

External: N2YO · Heavens-Above · Gunter

§ Orbital elements

Epoch: 2026-09-20T12:34:17.447520Z

Period
93.76 min
Inclination
53.1582°
Eccentricity
0.0003527
Mean motion
15.35891384 rev/d
Perigee alt
455.9 km
Apogee alt
460.7 km
Semi-major
6,836.4 km
B*
3.4780e-4
RAAN
339.3102°
Arg perigee
27.2910°
Mean anomaly
332.8278°
Rev number
14,061

§ Raw data

STARLINK-316301 59271U 24050T   26263.52381305  .00011962  00000+0  34780-3 0  99942 59271  53.1582 339.3102 0003527  27.2910 332.8278 15.35891384140611

JSON: /api/v1/satellites/59271 · /tle

For live sub-satellite position, see the globe view (requires WebGL).

§ Visibility from observer

Set your observer location to see the next 7 days of passes ≥ 10°. The values pass through the URL so the page stays shareable.

No JS? Fill the form by hand. The geolocation button needs JavaScript.